| time (UTC) | temp C | wind direction | speed KPH | gust KPH | rain 1hr cm | rain 24hr cm | rain mn cm | humidity % | barometer mb |
| 20260906083044 | 26 | 221 | 9.7 | 14.5 | 0.00 | 0.00 | 0.00 | 64 | 1017.8 |
| 20260906081602 | 26 | 159 | 4.8 | 11.3 | 0.00 | 0.00 | 0.00 | 64 | 1017.7 |
| 20260906080026 | 25 | 175 | 6.4 | 12.9 | 0.00 | 0.00 | 0.00 | 65 | 1017.5 |
| 20260906074545 | 25 | 174 | 6.4 | 16.1 | 0.00 | 0.00 | 0.00 | 64 | 1017.3 |
| 20260906073005 | 25 | 214 | 4.8 | 9.7 | 0.00 | 0.00 | 0.00 | 64 | 1017.2 |
| 20260906071537 | 26 | 246 | 3.2 | 4.8 | 0.00 | 0.00 | 0.00 | 62 | 1017.3 |
| 20260906070001 | 26 | 5 | 0.0 | 3.2 | 0.00 | 0.00 | 0.00 | 60 | 1017.2 |
| 20260906064531 | 25 | 19 | 1.6 | 4.8 | 0.00 | 0.00 | 0.00 | 61 | 1017.1 |
| 20260906063059 | 25 | 24 | 0.0 | 4.8 | 0.00 | 0.00 | 0.00 | 68 | 1017.1 |
| 20260906061527 | 23 | 22 | 0.0 | 4.8 | 0.00 | 0.00 | 0.00 | 71 | 1017.0 |
| 20260906060130 | 22 | 22 | 0.0 | 0.0 | 0.00 | 0.00 | 0.00 | 76 | 1016.8 |
| 20260906054519 | 22 | 22 | 0.0 | 0.0 | 0.00 | 0.00 | 0.00 | 75 | 1016.7 |
| 20260906053049 | 22 | 22 | 0.0 | 0.0 | 0.00 | 0.00 | 0.00 | 70 | 1016.5 |
| 20260906051606 | 22 | 22 | 0.0 | 0.0 | 0.00 | 0.00 | 0.00 | 69 | 1016.5 |
| 20260906050029 | 22 | 22 | 1.6 | 4.8 | 0.00 | 0.00 | 0.00 | 68 | 1016.5 |
| 20260906044545 | 22 | 22 | 3.2 | 4.8 | 0.00 | 0.00 | 0.00 | 71 | 1016.3 |
| 20260906043012 | 22 | 22 | 3.2 | 6.4 | 0.00 | 0.00 | 0.00 | 71 | 1016.4 |
| 20260906041545 | 22 | 19 | 3.2 | 8.0 | 0.00 | 0.00 | 0.00 | 71 | 1016.4 |
| 20260906040017 | 22 | 19 | 4.8 | 12.9 | 0.00 | 0.00 | 0.00 | 71 | 1016.3 |
| 20260906034541 | 22 | 14 | 4.8 | 9.7 | 0.00 | 0.00 | 0.00 | 71 | 1016.1 |
| 20260906033051 | 22 | 19 | 6.4 | 9.7 | 0.00 | 0.00 | 0.00 | 70 | 1016.1 |
| 20260906031532 | 22 | 26 | 4.8 | 8.0 | 0.00 | 0.00 | 0.00 | 70 | 1016.1 |
| 20260906030031 | 22 | 17 | 4.8 | 8.0 | 0.00 | 0.00 | 0.00 | 68 | 1016.1 |
| 20260906024605 | 23 | 29 | 4.8 | 6.4 | 0.00 | 0.00 | 0.00 | 66 | 1016.2 |
| 20260906023024 | 23 | 28 | 4.8 | 8.0 | 0.00 | 0.00 | 0.00 | 65 | 1016.2 |
| 20260906021557 | 23 | 28 | 0.0 | 1.6 | 0.00 | 0.00 | 0.00 | 69 | 1016.2 |
| 20260906020006 | 23 | 28 | 3.2 | 8.0 | 0.00 | 0.00 | 0.00 | 68 | 1016.3 |
| 20260906014538 | 23 | 44 | 4.8 | 8.0 | 0.00 | 0.00 | 0.00 | 64 | 1016.2 |
| 20260906013051 | 23 | 22 | 4.8 | 14.5 | 0.00 | 0.00 | 0.00 | 66 | 1016.2 |
| 20260906011518 | 23 | 38 | 6.4 | 16.1 | 0.00 | 0.00 | 0.00 | 67 | 1016.2 |
| 20260906010048 | 23 | 22 | 4.8 | 14.5 | 0.00 | 0.00 | 0.00 | 66 | 1016.2 |
| 20260906004514 | 23 | 26 | 4.8 | 8.0 | 0.00 | 0.00 | 0.00 | 66 | 1016.2 |
| 20260906003047 | 23 | 355 | 6.4 | 16.1 | 0.00 | 0.00 | 0.00 | 68 | 1016.4 |
| 20260906001556 | 23 | 26 | 8.0 | 17.7 | 0.00 | 0.00 | 0.00 | 67 | 1016.5 |
| 20260906000023 | 24 | 19 | 6.4 | 14.5 | 0.00 | 0.00 | 0.00 | 66 | 1016.5 |
| 20260905234557 | 24 | 17 | 4.8 | 12.9 | 0.00 | 0.00 | 0.00 | 68 | 1016.5 |
| 20260905233021 | 24 | 336 | 6.4 | 14.5 | 0.00 | 0.00 | 0.00 | 65 | 1016.6 |
| 20260905231551 | 23 | 350 | 1.6 | 4.8 | 0.00 | 0.00 | 0.00 | 60 | 1016.6 |
| 20260905230014 | 25 | 13 | 0.0 | 1.6 | 0.00 | 0.00 | 0.00 | 57 | 1016.6 |
| 20260905224548 | 25 | 10 | 3.2 | 9.7 | 0.00 | 0.00 | 0.00 | 56 | 1016.5 |
| 20260905223059 | 25 | 346 | 4.8 | 14.5 | 0.00 | 0.00 | 0.00 | 54 | 1016.6 |
| 20260905221527 | 25 | 331 | 4.8 | 12.9 | 0.00 | 0.00 | 0.00 | 55 | 1016.6 |
| 20260905220056 | 25 | 312 | 3.2 | 12.9 | 0.00 | 0.00 | 0.00 | 57 | 1016.5 |
| 20260905214519 | 25 | 286 | 1.6 | 6.4 | 0.00 | 0.00 | 0.00 | 55 | 1016.4 |
| 20260905213047 | 25 | 333 | 1.6 | 12.9 | 0.00 | 0.00 | 0.00 | 56 | 1016.4 |
| 20260905211515 | 25 | 290 | 0.0 | 14.5 | 0.00 | 0.00 | 0.00 | 57 | 1016.5 |
| 20260905210050 | 24 | 24 | 1.6 | 12.9 | 0.00 | 0.00 | 0.00 | 59 | 1016.4 |
| 20260905204601 | 23 | 19 | 8.0 | 12.9 | 0.00 | 0.00 | 0.00 | 62 | 1016.3 |
| 20260905203023 | 23 | 13 | 6.4 | 9.7 | 0.00 | 0.00 | 0.00 | 64 | 1016.4 |
| 20260905201555 | 24 | 38 | 4.8 | 9.7 | 0.00 | 0.00 | 0.00 | 61 | 1016.3 |
| 20260905200020 | 24 | 5 | 0.0 | 4.8 | 0.00 | 0.00 | 0.00 | 63 | 1016.3 |
| 20260905194551 | 24 | 5 | 0.0 | 6.4 | 0.00 | 0.00 | 0.00 | 59 | 1016.4 |
| 20260905193015 | 24 | 10 | 4.8 | 12.9 | 0.00 | 0.00 | 0.00 | 58 | 1016.3 |
| 20260905191547 | 25 | 11 | 3.2 | 6.4 | 0.00 | 0.00 | 0.00 | 61 | 1016.1 |
| 20260905184532 | 26 | 222 | 3.2 | 8.0 | 0.00 | 0.00 | 0.00 | 62 | 1015.9 |
| 20260905183058 | 26 | 170 | 4.8 | 9.7 | 0.00 | 0.00 | 0.00 | 61 | 1015.7 |
| 20260905181526 | 27 | 208 | 1.6 | 14.5 | 0.00 | 0.00 | 0.00 | 55 | 1015.7 |
| 20260905180112 | 27 | 231 | 6.4 | 11.3 | 0.00 | 0.00 | 0.00 | 53 | 1015.7 |
| 20260905174506 | 27 | 263 | 1.6 | 9.7 | 0.00 | 0.00 | 0.00 | 51 | 1015.6 |
| 20260905173039 | 28 | 234 | 3.2 | 11.3 | 0.00 | 0.00 | 0.00 | 48 | 1015.5 |
| 20260905171502 | 28 | 252 | 4.8 | 11.3 | 0.00 | 0.00 | 0.00 | 46 | 1015.4 |
| 20260905170032 | 29 | 257 | 8.0 | 16.1 | 0.00 | 0.00 | 0.00 | 50 | 1015.4 |
| 20260905164550 | 29 | 242 | 9.7 | 17.7 | 0.00 | 0.00 | 0.00 | 47 | 1015.3 |
| 20260905163012 | 30 | 227 | 8.0 | 17.7 | 0.00 | 0.00 | 0.00 | 45 | 1015.4 |
| 20260905161545 | 30 | 231 | 6.4 | 16.1 | 0.00 | 0.00 | 0.00 | 45 | 1015.3 |
| 20260905154526 | 30 | 236 | 8.0 | 19.3 | 0.00 | 0.00 | 0.00 | 47 | 1015.4 |
| 20260905153053 | 30 | 242 | 8.0 | 24.1 | 0.00 | 0.00 | 0.00 | 47 | 1015.4 |
| 20260905151521 | 31 | 252 | 9.7 | 24.1 | 0.00 | 0.00 | 0.00 | 42 | 1015.4 |
| 20260905150049 | 30 | 178 | 16.1 | 22.5 | 0.00 | 0.00 | 0.00 | 52 | 1015.4 |
| 20260905144603 | 30 | 203 | 11.3 | 27.4 | 0.00 | 0.00 | 0.00 | 45 | 1015.4 |
| 20260905143025 | 30 | 184 | 16.1 | 27.4 | 0.00 | 0.00 | 0.00 | 43 | 1015.5 |
| 20260905141558 | 30 | 191 | 14.5 | 24.1 | 0.00 | 0.00 | 0.00 | 52 | 1015.6 |
| 20260905140021 | 30 | 183 | 14.5 | 25.7 | 0.00 | 0.00 | 0.00 | 53 | 1015.8 |
| 20260905134558 | 30 | 191 | 16.1 | 25.7 | 0.00 | 0.00 | 0.00 | 50 | 1015.8 |
| 20260905133020 | 30 | 148 | 14.5 | 25.7 | 0.00 | 0.00 | 0.00 | 48 | 1015.7 |
| 20260905131546 | 30 | 199 | 12.9 | 24.1 | 0.00 | 0.00 | 0.00 | 48 | 1015.8 |
| 20260905130010 | 30 | 180 | 14.5 | 22.5 | 0.00 | 0.00 | 0.00 | 47 | 1016.1 |
| 20260905124546 | 30 | 239 | 17.7 | 27.4 | 0.00 | 0.00 | 0.00 | 43 | 1016.0 |
| 20260905123102 | 30 | 165 | 12.9 | 29.0 | 0.00 | 0.00 | 0.00 | 43 | 1016.2 |
| 20260905121521 | 30 | 200 | 14.5 | 25.7 | 0.00 | 0.00 | 0.00 | 44 | 1016.3 |
| 20260905120100 | 30 | 175 | 14.5 | 24.1 | 0.00 | 0.00 | 0.00 | 45 | 1016.3 |
| 20260905114517 | 30 | 181 | 19.3 | 29.0 | 0.00 | 0.00 | 0.00 | 41 | 1016.2 |
| 20260905113054 | 31 | 185 | 12.9 | 22.5 | 0.00 | 0.00 | 0.00 | 34 | 1016.2 |
| 20260905111515 | 30 | 184 | 9.7 | 30.6 | 0.00 | 0.00 | 0.00 | 35 | 1016.2 |
| 20260905110040 | 31 | 188 | 12.9 | 20.9 | 0.00 | 0.00 | 0.00 | 39 | 1016.3 |
| 20260905104555 | 31 | 163 | 4.8 | 19.3 | 0.00 | 0.00 | 0.00 | 38 | 1016.3 |
| 20260905103026 | 30 | 226 | 11.3 | 24.1 | 0.00 | 0.00 | 0.00 | 40 | 1016.5 |
| 20260905101551 | 30 | 169 | 6.4 | 17.7 | 0.00 | 0.00 | 0.00 | 38 | 1016.5 |
| 20260905100015 | 30 | 140 | 8.0 | 19.3 | 0.00 | 0.00 | 0.00 | 36 | 1016.5 |
| 20260905094547 | 30 | 216 | 9.7 | 16.1 | 0.00 | 0.00 | 0.00 | 38 | 1016.6 |
| 20260905093121 | 29 | 194 | 8.0 | 16.1 | 0.00 | 0.00 | 0.00 | 44 | 1016.7 |
| 20260905091527 | 28 | 195 | 9.7 | 16.1 | 0.00 | 0.00 | 0.00 | 48 | 1016.6 |
| 20260905090057 | 28 | 213 | 4.8 | 16.1 | 0.00 | 0.00 | 0.00 | 50 | 1016.4 |
| 20260905084520 | 27 | 221 | 8.0 | 14.5 | 0.00 | 0.00 | 0.00 | 57 | 1016.4 |